Starlink 31788

operational
NORAD ID: 60055 Int'l Des: 2024-112 Owner: SPXS Country: US Constellation: starlink
LEOCIRCULAR

Über Starlink 31788

Beschreibung wird geladen...

Live-Position

3D-Globus wird geladen...

Nächste Überflüge

Höhenverlauf

Altitude vs Time

uPlot chart will show altitude changes over time

Zweizeiliger Elementsatz

1 60055U 24112T 25261.12127310 -.00002220 00000-0 -62958-4 0 9991
2 60055 53.1604 159.6917 0001358 84.8528 275.2627 15.30148337 72170
Epoch: 18. Sept. 2025 • Age: 12 hours

Aktueller Status

Höhe 476.3 km
Geschwindigkeit 7.63 km/s
Subsatellitenpunkt 27.95°N, 98.72°E
Startdatum 8. Juni 2024
Alter 1.2 years
Typ internet

Technische Details

Klassifizierung Payload
Masse 730.00 kg
Trockenmasse 700.00 kg
Gesamtmasse 730.00 kg
Länge 0.30 m
Durchmesser 4.10 m
Spannweite 29.00 m
Form Box + pan
Hersteller SPXS
Bus-Typ Starlink V2M
Phasenstatus In Orbit
Besitzer/Staat SPXS/US

Große Konstellationen

Loading constellations...